******** Week 353 almanac for PRN-1 ******** ID: 1 Health: 0 Eccentricity: 0.001356124878 Time of Applicability(s): 147456 Orbital Inclination(rad): 0.9583568941 Rate of Right Ascen(r/s): -8.126052768e-09 SQRT(A) (m 1/2): 5153.582031 Right Ascen at Week(rad): -2.268441877 Argument of Perigee(rad): -0.02049002854 Mean Anom(rad): -1.015569809 Af0(s): 0.0002720764282 Af1(s/s): -3.637979e-12 week: 353 ******** Week 353 almanac for PRN-2 ******** ID: 2 Health: 0 Eccentricity: 0.0169711113 Time of Applicability(s): 147456 Orbital Inclination(rad): 0.963893606 Rate of Right Ascen(r/s): -8.023191341e-09 SQRT(A) (m 1/2): 5153.563477 Right Ascen at Week(rad): -2.431224727 Argument of Perigee(rad): -0.8521128458 Mean Anom(rad): 0.3723876932 Af0(s): 1.205878906e-05 Af1(s/s): 7.275958e-12 week: 353 ******** Week 353 almanac for PRN-3 ******** ID: 3 Health: 0 Eccentricity: 0.006335735321 Time of Applicability(s): 147456 Orbital Inclination(rad): 0.9925538798 Rate of Right Ascen(r/s): -7.566029441e-09 SQRT(A) (m 1/2): 5153.612793 Right Ascen at Week(rad): -1.282534523 Argument of Perigee(rad): 1.211054613 Mean Anom(rad): 3.02653698 Af0(s): 0.0004748148193 Af1(s/s): -1.091394e-11 week: 353 ******** Week 353 almanac for PRN-4 ******** ID: 4 Health: 0 Eccentricity: 0.003725528717 Time of Applicability(s): 147456 Orbital Inclination(rad): 0.9704849297 Rate of Right Ascen(r/s): -7.657461821e-09 SQRT(A) (m 1/2): 5153.70166 Right Ascen at Week(rad): -0.2113316946 Argument of Perigee(rad): -2.915643576 Mean Anom(rad): -0.1928771118 Af0(s): 3.014697266e-05 Af1(s/s): 3.637979e-12 week: 353 ******** Week 353 almanac for PRN-5 ******** ID: 5 Health: 0 Eccentricity: 0.00537109375 Time of Applicability(s): 147456 Orbital Inclination(rad): 0.9791315479 Rate of Right Ascen(r/s): -7.714607058e-09 SQRT(A) (m 1/2): 5153.634277 Right Ascen at Week(rad): -1.341661692 Argument of Perigee(rad): 1.426229124 Mean Anom(rad): 0.406640855 Af0(s): -0.0001793744873 Af1(s/s): 0 week: 353 ******** Week 353 almanac for PRN-6 ******** ID: 6 Health: 0 Eccentricity: 0.003851413727 Time of Applicability(s): 147456 Orbital Inclination(rad): 0.9873167736 Rate of Right Ascen(r/s): -7.840326581e-09 SQRT(A) (m 1/2): 5153.560059 Right Ascen at Week(rad): -2.319307421 Argument of Perigee(rad): -0.6284145546 Mean Anom(rad): -1.871943796 Af0(s): -0.0004755684936 Af1(s/s): -3.637979e-12 week: 353 ******** Week 353 almanac for PRN-7 ******** ID: 7 Health: 0 Eccentricity: 0.02016305923 Time of Applicability(s): 147456 Orbital Inclination(rad): 0.950734927 Rate of Right Ascen(r/s): -7.908900866e-09 SQRT(A) (m 1/2): 5153.580566 Right Ascen at Week(rad): 0.797348683 Argument of Perigee(rad): -2.005734185 Mean Anom(rad): -2.784937627 Af0(s): -0.0001062680786 Af1(s/s): -3.637979e-12 week: 353 ******** Week 353 almanac for PRN-8 ******** ID: 8 Health: 0 Eccentricity: 0.01139831543 Time of Applicability(s): 147456 Orbital Inclination(rad): 0.9445211064 Rate of Right Ascen(r/s): -8.034620388e-09 SQRT(A) (m 1/2): 5153.616699 Right Ascen at Week(rad): 2.845930966 Argument of Perigee(rad): 0.499059827 Mean Anom(rad): 0.06900479253 Af0(s): 0.0003994473877 Af1(s/s): -3.637979e-12 week: 353 ******** Week 353 almanac for PRN-9 ******** ID: 9 Health: 0 Eccentricity: 0.003383636475 Time of Applicability(s): 147456 Orbital Inclination(rad): 0.9645946831 Rate of Right Ascen(r/s): -7.714607058e-09 SQRT(A) (m 1/2): 5153.529785 Right Ascen at Week(rad): -0.2752023703 Argument of Perigee(rad): 2.069311996 Mean Anom(rad): 0.641198352 Af0(s): 0.0006089688477 Af1(s/s): 0 week: 353 ******** Week 353 almanac for PRN-10 ******** ID: 10 Health: 0 Eccentricity: 0.01097679138 Time of Applicability(s): 147456 Orbital Inclination(rad): 0.9921044714 Rate of Right Ascen(r/s): -7.554600394e-09 SQRT(A) (m 1/2): 5153.609375 Right Ascen at Week(rad): -1.285045592 Argument of Perigee(rad): -2.268110438 Mean Anom(rad): 2.060839898 Af0(s): -0.000459741333 Af1(s/s): -3.637979e-12 week: 353 ******** Week 353 almanac for PRN-11 ******** ID: 11 Health: 0 Eccentricity: 0.002239227295 Time of Applicability(s): 147456 Orbital Inclination(rad): 0.964163251 Rate of Right Ascen(r/s): -8.068907531e-09 SQRT(A) (m 1/2): 5153.725098 Right Ascen at Week(rad): -2.299428588 Argument of Perigee(rad): -2.249833372 Mean Anom(rad): -0.9076881908 Af0(s): -0.0003768371582 Af1(s/s): 1.455192e-11 week: 353 ******** Week 353 almanac for PRN-12 ******** ID: 12 Health: 0 Eccentricity: 0.009063720703 Time of Applicability(s): 147456 Orbital Inclination(rad): 0.958938129 Rate of Right Ascen(r/s): -7.714607058e-09 SQRT(A) (m 1/2): 5153.517578 Right Ascen at Week(rad): 1.915272761 Argument of Perigee(rad): 1.53336023 Mean Anom(rad): 2.87816179 Af0(s): -0.0004793368652 Af1(s/s): 0 week: 353 ******** Week 353 almanac for PRN-13 ******** ID: 13 Health: 0 Eccentricity: 0.009897708893 Time of Applicability(s): 147456 Orbital Inclination(rad): 0.9761774365 Rate of Right Ascen(r/s): -7.634603726e-09 SQRT(A) (m 1/2): 5153.622559 Right Ascen at Week(rad): -0.1008438821 Argument of Perigee(rad): 1.002862036 Mean Anom(rad): -0.2078000933 Af0(s): 0.0005449065308 Af1(s/s): 0 week: 353 ******** Week 353 almanac for PRN-14 ******** ID: 14 Health: 0 Eccentricity: 0.006491184235 Time of Applicability(s): 147456 Orbital Inclination(rad): 0.9422441037 Rate of Right Ascen(r/s): -7.920329913e-09 SQRT(A) (m 1/2): 5153.591797 Right Ascen at Week(rad): 1.861411909 Argument of Perigee(rad): -2.763066417 Mean Anom(rad): 2.683351472 Af0(s): 0.0005758071777 Af1(s/s): 3.637979e-12 week: 353 ******** Week 353 almanac for PRN-15 ******** ID: 15 Health: 0 Eccentricity: 0.01659488678 Time of Applicability(s): 147456 Orbital Inclination(rad): 0.9423759302 Rate of Right Ascen(r/s): -7.954617056e-09 SQRT(A) (m 1/2): 5153.620117 Right Ascen at Week(rad): -0.4179902905 Argument of Perigee(rad): 1.493474108 Mean Anom(rad): -0.9416192766 Af0(s): 0.0002969476807 Af1(s/s): 3.637979e-12 week: 353 ******** Week 353 almanac for PRN-16 ******** ID: 16 Health: 0 Eccentricity: 0.01503705978 Time of Applicability(s): 147456 Orbital Inclination(rad): 0.9580992332 Rate of Right Ascen(r/s): -7.737465153e-09 SQRT(A) (m 1/2): 5153.57373 Right Ascen at Week(rad): 1.932335676 Argument of Perigee(rad): 0.9204884665 Mean Anom(rad): 1.064696143 Af0(s): 0.000147720166 Af1(s/s): 7.275958e-12 week: 353 ******** Week 353 almanac for PRN-17 ******** ID: 17 Health: 0 Eccentricity: 0.01284074783 Time of Applicability(s): 147456 Orbital Inclination(rad): 0.9602803622 Rate of Right Ascen(r/s): -7.886042771e-09 SQRT(A) (m 1/2): 5153.51709 Right Ascen at Week(rad): 2.949815096 Argument of Perigee(rad): -1.136368174 Mean Anom(rad): -0.04624412787 Af0(s): -2.411757812e-05 Af1(s/s): -1.091394e-11 week: 353 ******** Week 353 almanac for PRN-18 ******** ID: 18 Health: 0 Eccentricity: 0.00568819046 Time of Applicability(s): 147456 Orbital Inclination(rad): 0.9722825634 Rate of Right Ascen(r/s): -7.977475151e-09 SQRT(A) (m 1/2): 5153.599121 Right Ascen at Week(rad): -2.323650205 Argument of Perigee(rad): -2.856647859 Mean Anom(rad): -2.026971355 Af0(s): -0.0003579953003 Af1(s/s): 1.091394e-11 week: 353 ******** Week 353 almanac for PRN-19 ******** ID: 19 Health: 0 Eccentricity: 0.0109577179 Time of Applicability(s): 147456 Orbital Inclination(rad): 0.9594774191 Rate of Right Ascen(r/s): -7.908900866e-09 SQRT(A) (m 1/2): 5153.659668 Right Ascen at Week(rad): 2.993719304 Argument of Perigee(rad): 2.913957546 Mean Anom(rad): 1.821720905 Af0(s): 0.0005418918335 Af1(s/s): 3.637979e-12 week: 353 ******** Week 353 almanac for PRN-21 ******** ID: 21 Health: 0 Eccentricity: 0.0005431175232 Time of Applicability(s): 147456 Orbital Inclination(rad): 0.9619881142 Rate of Right Ascen(r/s): -7.863184676e-09 SQRT(A) (m 1/2): 5153.691406 Right Ascen at Week(rad): -1.274811439 Argument of Perigee(rad): -0.4966970621 Mean Anom(rad): 2.745873923 Af0(s): 0.0002992087036 Af1(s/s): 7.275958e-12 week: 353 ******** Week 353 almanac for PRN-22 ******** ID: 22 Health: 0 Eccentricity: 0.01224565506 Time of Applicability(s): 147456 Orbital Inclination(rad): 0.9575359747 Rate of Right Ascen(r/s): -7.760323248e-09 SQRT(A) (m 1/2): 5153.580078 Right Ascen at Week(rad): 1.935673282 Argument of Perigee(rad): -0.9977919603 Mean Anom(rad): 0.6077084355 Af0(s): -4.672780762e-05 Af1(s/s): 3.637979e-12 week: 353 ******** Week 353 almanac for PRN-23 ******** ID: 23 Health: 0 Eccentricity: 0.00599861145 Time of Applicability(s): 147456 Orbital Inclination(rad): 0.9870950654 Rate of Right Ascen(r/s): -7.623174678e-09 SQRT(A) (m 1/2): 5153.65625 Right Ascen at Week(rad): -1.316912395 Argument of Perigee(rad): -2.748986076 Mean Anom(rad): -3.122238881 Af0(s): 0.0004733074707 Af1(s/s): 3.637979e-12 week: 353 ******** Week 353 almanac for PRN-24 ******** ID: 24 Health: 0 Eccentricity: 0.01782846451 Time of Applicability(s): 147456 Orbital Inclination(rad): 0.9348019 Rate of Right Ascen(r/s): -8.068907531e-09 SQRT(A) (m 1/2): 5153.590332 Right Ascen at Week(rad): 0.6897258492 Argument of Perigee(rad): 1.129013231 Mean Anom(rad): -1.804461374 Af0(s): -0.0001311393311 Af1(s/s): 1.455192e-11 week: 353 ******** Week 353 almanac for PRN-25 ******** ID: 25 Health: 0 Eccentricity: 0.01292610168 Time of Applicability(s): 147456 Orbital Inclination(rad): 0.947217557 Rate of Right Ascen(r/s): -7.863184676e-09 SQRT(A) (m 1/2): 5153.691895 Right Ascen at Week(rad): 1.821976319 Argument of Perigee(rad): 1.148898056 Mean Anom(rad): 2.733712931 Af0(s): 0.0003557342773 Af1(s/s): -3.637979e-12 week: 353 ******** Week 353 almanac for PRN-26 ******** ID: 26 Health: 0 Eccentricity: 0.01096105576 Time of Applicability(s): 147456 Orbital Inclination(rad): 0.9279529155 Rate of Right Ascen(r/s): -8.068907531e-09 SQRT(A) (m 1/2): 5153.633301 Right Ascen at Week(rad): 1.748348986 Argument of Perigee(rad): 0.6995401804 Mean Anom(rad): 1.901917091 Af0(s): -0.0002449441528 Af1(s/s): -7.275958e-12 week: 353 ******** Week 353 almanac for PRN-27 ******** ID: 27 Health: 0 Eccentricity: 0.01414823532 Time of Applicability(s): 147456 Orbital Inclination(rad): 0.9536411016 Rate of Right Ascen(r/s): -7.954617056e-09 SQRT(A) (m 1/2): 5153.616211 Right Ascen at Week(rad): 2.877514641 Argument of Perigee(rad): 0.8650179835 Mean Anom(rad): 0.1580341014 Af0(s): -1.35661377e-05 Af1(s/s): -7.275958e-12 week: 353 ******** Week 353 almanac for PRN-28 ******** ID: 28 Health: 0 Eccentricity: 0.0004096031189 Time of Applicability(s): 147456 Orbital Inclination(rad): 0.9617184692 Rate of Right Ascen(r/s): -7.817468486e-09 SQRT(A) (m 1/2): 5153.704102 Right Ascen at Week(rad): 0.771051174 Argument of Perigee(rad): 0.3959880026 Mean Anom(rad): -2.807849593 Af0(s): -0.0004838589111 Af1(s/s): 3.637979e-12 week: 353 ******** Week 353 almanac for PRN-29 ******** ID: 29 Health: 0 Eccentricity: 0.003241062164 Time of Applicability(s): 147456 Orbital Inclination(rad): 0.9629228838 Rate of Right Ascen(r/s): -7.886042771e-09 SQRT(A) (m 1/2): 5153.739746 Right Ascen at Week(rad): 2.966387406 Argument of Perigee(rad): 2.752804175 Mean Anom(rad): 0.03515385124 Af0(s): -0.0003112674927 Af1(s/s): 7.275958e-12 week: 353 ******** Week 353 almanac for PRN-30 ******** ID: 30 Health: 0 Eccentricity: 0.007859706879 Time of Applicability(s): 147456 Orbital Inclination(rad): 0.9359943304 Rate of Right Ascen(r/s): -8.080336578e-09 SQRT(A) (m 1/2): 5153.720703 Right Ascen at Week(rad): 0.7890623405 Argument of Perigee(rad): -2.349539876 Mean Anom(rad): -2.886651115 Af0(s): 6.783068848e-05 Af1(s/s): 1.091394e-11 week: 353 ******** Week 353 almanac for PRN-31 ******** ID: 31 Health: 0 Eccentricity: 0.01088142395 Time of Applicability(s): 147456 Orbital Inclination(rad): 0.9544979737 Rate of Right Ascen(r/s): -7.874613723e-09 SQRT(A) (m 1/2): 5153.70166 Right Ascen at Week(rad): 0.8213616992 Argument of Perigee(rad): 0.9300956953 Mean Anom(rad): 2.436161853 Af0(s): -0.0001364150513 Af1(s/s): 3.637979e-12 week: 353 ******** Week 353 almanac for PRN-32 ******** ID: 32 Health: 0 Eccentricity: 0.009164333343 Time of Applicability(s): 147456 Orbital Inclination(rad): 0.9676806211 Rate of Right Ascen(r/s): -7.691748963e-09 SQRT(A) (m 1/2): 5153.661621 Right Ascen at Week(rad): -0.2583772675 Argument of Perigee(rad): -2.029166715 Mean Anom(rad): 0.7713788676 Af0(s): -0.0001311393311 Af1(s/s): 1.818989e-11 week: 353